Location: Carrières
(48.9495°N, 2.0407°E)
Time: 03:01:30
(UTC+00:00)

Transit 2A Rocket - Pass Details

Date: 29 April 2024
Orbit: 585 x 908 km, 66.7° (Epoch: 19 May)

Event Time Altitude Azimuth Distance (km) Brightness Sun altitude
Rises 10:05:50 0° 226° (SW) 2,910 8.0 49.7°
Reaches altitude 10° 10:08:03 10° 230° (SW) 2,044 7.3 50.0°
Maximum altitude 10:12:37 60° 311° (NW) 793 5.5 50.4°
Drops below altitude 10° 10:17:40 10° 31° (NNE) 2,255 7.4 50.9°
Sets 10:20:12 0° 35° (NE) 3,239 8.1 51.2°
